HYLAS 4 (43272 NORAD) Tracking and Keplerian Element Data

This shows tracking and keplerian element data for the satellite.

Feedback or suggestion? Click here.




ElementValue
Catalog43272
NameHYLAS 4
Epoch Orbit1644
Epoch Day269.73565829
Epoch Year2022
RAAN262.634
Inclination0.0425
Eccentricity0.0001214
Argument of Perigee286.0934
Mean Anonmoly48.1582
Mean Motion1.00270539
Decay Rate-2.3E-06
L11 43272U 18033B 22269.73565829 -.00000230 00000+0 00000+0 0 9993
L22 43272 0.0425 262.6340 0001214 286.0934 48.1582 1.00270539 16444

Live tracking and technical data element details for HYLAS 4 (NORAD 43272). HYLAS 4 can be tracked NOW for your location showing map with azimuth and elevation plus other details from your city location.

Track the satellite on the map from your city or location and see movement details for azimuth, elevation, latitude, longitude, range, height, and movement on the map or in text.







IsCatalogInMostPopularTable: catalog: 43272, numindb: 813
Update: records affected: 1



GetName: 43272 HYLAS 4

Hit Count: updated at: Fri, 30 Sep 2022 04:13:44 GMT